Temperature
21 22 23 23 23 23 23 23 23 22 22 21 21 20 20 20 19 19 19 18 18 18 18 17 17 17 17 17 17 17 16 16 16 16 16 16 16 16 15 15 15 16 16
20 22 23 23 23 24 24 24 23 23 22 22 21 21 20 20 19 19 19 18 18 18 18 17 17 17 17 17 17 17 16 16 16 16 16 16 15 15 15 15 15 15 15
18 21 22 23 23 24 24 24 23 23 22 22 21 20 20 20 19 19 19 18 18 18 17 17 17 17 17 17 17 17 16 16 16 16 16 16 16 16 16 16 15 15 15
17 19 21 22 22 23 23 23 22 22 22 21 20 20 20 20 19 19 18 18 18 17 17 17 17 17 17 17 16 16 16 16 16 15 15 16 16 16 16 16 15 15 15
16 18 19 20 21 21 21 21 21 20 20 20 20 19 19 19 19 18 18 18 17 17 17 17 17 17 16 16 16 16 16 16 16 15 15 15 15 15 16 16 16 15 15
16 17 18 19 19 20 20 20 19 19 19 19 19 18 18 18 18 18 18 17 17 17 17 17 16 16 16 16 16 16 16 16 15 15 15 15 15 15 15 16 16 16 16
15 16 16 17 17 17 18 18 18 18 18 18 18 18 18 18 18 17 17 17 17 17 17 16 16 16 16 16 16 16 16 15 15 15 15 15 15 15 15 15 15 16 15
14 15 15 16 16 16 17 17 17 17 17 17 18 18 18 18 18 17 17 17 17 16 16 16 16 16 16 16 16 15 15 15 15 15 15 15 15 15 15 15 15 15 15
14 14 15 15 16 16 16 16 16 17 17 17 18 18 18 18 17 17 17 17 16 16 16 16 16 16 16 15 15 15 15 15 15 15 14 14 15 14 14 14 14 14 15
14 14 15 15 16 16 16 16 16 17 17 18 18 18 18 17 17 17 17 16 16 16 16 16 16 16 16 15 15 15 15 15 14 14 14 14 14 14 14 14 14 14 14
13 14 14 15 15 16 16 16 17 17 17 17 18 18 18 17 17 17 16 16 16 16 16 16 16 16 16 15 15 15 15 14 14 14 14 14 14 14 14 14 14 14 14
13 14 14 15 15 16 16 17 17 17 17 17 17 17 17 17 17 17 16 16 16 16 16 15 15 15 15 15 15 15 14 14 14 14 13 13 13 13 13 13 13 13 13
13 13 14 14 15 16 16 17 17 17 17 17 17 17 17 17 17 17 16 16 16 16 15 15 15 15 15 15 15 15 14 14 14 14 13 13 13 13 13 13 13 13 13
12 13 13 14 15 15 16 17 17 17 17 17 17 17 17 17 17 17 16 16 16 16 15 15 15 15 15 15 15 14 14 14 14 14 13 13 13 13 13 13 13 13 13
12 12 13 13 14 15 15 16 16 17 17 17 17 17 16 16 16 16 16 16 16 16 15 15 15 15 15 15 14 14 14 14 14 14 13 13 13 13 13 13 13 12 12
12 13 13 13 14 14 15 15 16 16 16 16 16 16 16 16 16 16 16 16 16 16 15 15 15 15 15 15 14 14 14 14 14 14 14 13 13 13 13 13 13 12 12
12 13 13 13 13 14 14 14 14 15 15 15 15 15 15 15 15 15 15 15 15 15 15 15 15 15 15 15 14 14 14 14 14 14 14 14 13 13 13 13 13 13 12
13 13 13 13 13 13 13 13 13 14 14 14 14 14 14 14 14 14 14 14 15 14 14 14 14 14 14 14 14 14 14 14 14 14 14 14 14 14 13 13 13 13 13
13 13 13 13 13 13 13 13 13 13 13 13 13 13 13 13 13 13 13 13 13 13 13 13 14 14 14 14 14 14 14 14 14 14 14 14 14 14 14 14 13 13 13
14 14 14 14 13 13 13 13 12 12 12 12 12 12 12 12 12 12 12 12 12 12 12 12 13 13 13 13 14 14 14 14 14 14 14 14 14 14 14 14 14 13 13
14 14 14 14 14 13 13 13 12 12 12 12 12 12 12 12 11 11 11 12 12 12 12 12 12 12 13 13 13 13 13 14 14 13 14 14 14 14 13 13 13 13 13
14 14 14 14 14 14 13 13 12 12 12 12 11 11 11 11 11 11 11 11 12 12 12 12 12 12 12 12 13 13 13 13 13 13 13 13 13 13 13 13 13 13 13
15 15 15 14 14 14 14 13 13 12 12 12 11 11 11 11 11 11 11 11 11 11 11 11 11 11 12 12 12 12 12 12 12 13 13 13 13 13 13 13 13 13 13
15 15 15 15 15 14 14 14 13 13 12 12 11 11 11 11 11 11 11 11 11 11 11 11 11 11 11 11 12 12 12 12 12 12 12 12 12 12 12 12 12 12 12
15 15 15 15 15 15 14 14 13 13 12 12 12 11 11 11 11 11 10 10 10 10 10 10 10 10 11 11 11 11 11 12 12 12 12 12 12 12 12 12 11 11 11
15 15 15 15 15 15 15 14 14 13 13 12 12 11 11 11 11 10 10 10 10 10 10 10 10 10 10 10 11 11 11 11 11 11 11 11 11 11 11 11 11 11 11
Wind_Speed
10 10 11 14 15 15 16 16 15 13 11 8 7 6 6 5 5 5 8 10 11 11 9 6 6 5 5 5 5 4 4 3 3 4 2 2 1 1 1 1 1 1 1
13 11 10 11 16 18 18 17 16 14 12 10 7 4 3 3 3 3 4 8 9 9 9 7 6 7 6 6 6 5 4 3 4 4 3 1 2 2 2 2 3 3 2
16 14 10 10 12 15 16 15 14 12 10 8 5 4 4 3 2 3 4 5 7 8 7 7 6 7 7 7 8 7 7 5 3 2 4 4 5 3 2 3 4 4 3
17 13 10 6 7 9 9 10 10 10 9 9 7 5 5 5 5 3 3 4 5 6 7 6 6 7 6 7 8 7 6 6 5 3 1 2 3 3 2 2 3 4 5
16 14 11 5 2 2 6 8 10 9 8 7 6 4 3 3 2 2 3 4 4 5 6 6 6 6 6 7 7 8 8 6 6 5 3 2 1 1 3 3 2 2 4
16 15 13 10 9 9 9 11 12 9 6 5 3 5 6 5 4 4 3 3 2 3 4 5 5 6 6 7 7 8 9 8 7 6 5 5 3 4 3 3 3 3 3
13 13 13 11 10 11 10 10 11 8 4 3 4 5 6 6 5 4 4 3 2 2 3 4 4 4 5 5 6 7 8 8 9 9 7 7 5 4 4 4 3 3 2
12 11 10 9 8 8 9 8 7 5 3 3 4 4 5 4 3 4 3 3 3 2 2 3 3 3 4 4 5 5 6 7 8 9 8 6 6 5 5 5 5 3 2
13 11 8 7 7 7 6 6 4 2 2 3 3 4 3 3 3 3 3 3 2 2 2 2 2 2 2 3 4 4 5 6 7 7 8 7 6 6 6 5 5 6 4
13 10 7 5 5 5 5 5 2 2 2 3 2 3 3 3 3 3 3 3 2 2 3 3 2 2 2 2 2 2 3 5 5 5 7 7 5 6 6 6 5 5 6
12 9 7 6 5 5 4 3 2 1 3 3 4 4 4 4 4 3 2 2 2 2 3 3 2 2 2 2 2 2 2 3 3 3 5 6 6 6 6 6 6 6 5
11 8 7 8 7 6 4 2 2 1 3 4 5 5 4 5 4 3 1 2 2 2 3 3 3 3 3 2 3 2 2 2 3 3 3 4 4 6 6 6 7 7 6
13 11 10 9 8 6 5 4 2 1 3 4 5 4 4 3 3 2 1 1 2 2 3 3 3 3 4 3 3 3 2 2 2 2 2 3 3 4 4 5 6 6 6
14 14 12 11 10 9 8 7 5 3 4 4 5 5 3 2 2 2 1 1 1 2 3 3 4 4 4 4 4 4 3 2 1 1 1 2 3 4 3 4 5 5 5
15 14 12 10 10 11 10 9 8 6 5 5 6 5 4 3 3 3 2 1 2 3 3 3 4 4 4 5 6 5 4 4 2 1 1 2 3 4 3 2 3 4 4
13 11 11 10 10 10 9 9 9 8 7 8 7 6 5 5 5 4 4 3 3 3 3 3 4 4 5 6 9 7 5 5 4 3 2 2 2 3 4 4 4 5 4
11 11 10 9 8 8 8 9 9 9 9 9 8 7 6 6 6 6 6 5 4 4 3 3 3 5 6 7 7 10 6 5 5 4 3 2 3 3 2 3 4 5 6
10 9 8 7 7 7 8 8 9 9 9 9 9 8 7 7 7 7 6 6 4 4 3 4 4 4 5 6 7 9 7 5 5 5 5 4 3 3 4 3 3 4 5
7 6 5 5 5 7 7 7 8 8 8 8 8 8 7 7 7 7 7 5 5 5 4 4 4 4 5 5 4 5 5 4 4 4 4 5 4 5 5 4 4 4 4
7 5 5 4 5 6 6 7 7 7 7 7 6 7 7 7 7 7 6 5 5 5 5 5 5 4 5 6 4 4 4 4 3 2 3 4 5 4 5 5 5 5 4
7 6 5 4 4 5 5 6 6 6 5 5 6 7 7 7 7 7 6 7 7 7 7 7 6 6 7 8 5 2 3 3 3 2 1 1 2 2 3 5 4 5 3
7 6 5 5 5 3 3 5 5 5 3 4 6 7 7 7 7 8 8 8 8 8 8 7 7 6 7 8 7 5 2 3 2 1 1 0 1 2 1 2 2 2 1
8 6 5 6 5 3 1 3 4 3 2 4 4 5 6 6 7 8 8 8 8 7 7 7 7 7 6 8 12 10 6 4 2 1 2 3 5 5 4 3 2 2 2
7 6 5 5 5 3 2 2 2 1 2 3 3 3 4 5 6 6 7 7 7 7 7 7 7 6 6 7 7 6 5 5 5 4 6 8 8 5 4 3 3 2 1
7 6 5 6 6 5 3 2 1 2 2 2 2 2 3 3 4 5 5 5 5 6 5 5 5 6 6 7 8 5 3 3 3 4 3 4 3 4 4 3 3 3 2
7 7 6 6 6 5 4 3 2 3 2 1 1 1 1 1 2 2 3 4 5 7 9 9 7 4 6 8 9 9 9 8 7 5 4 4 4 4 3 3 3 3 2
Wind_Direction
289 275 250 229 220 212 207 204 199 192 178 176 180 186 201 200 203 204 203 202 201 200 199 206 204 194 201 202 178 155 148 131 131 106 77 24 2 244 241 205 160 155 75
322 303 273 240 221 215 208 203 199 191 185 187 179 167 160 184 203 204 201 203 199 195 201 199 198 196 197 193 181 161 153 153 159 136 124 99 329 288 226 215 214 209 211
328 317 298 256 228 217 208 199 193 183 175 164 144 118 108 105 151 197 207 203 198 197 200 197 195 194 192 196 191 179 167 167 181 179 155 162 211 243 268 228 219 208 210
337 329 319 291 243 219 198 183 167 153 147 147 161 169 179 197 204 193 195 193 193 197 203 201 196 196 194 196 196 186 178 165 175 185 178 157 159 167 215 274 231 215 218
344 347 348 345 360 104 122 122 111 109 118 132 151 177 204 213 162 151 179 190 195 199 202 203 197 199 199 200 194 187 186 182 178 175 159 138 142 162 157 210 237 236 230
349 355 4 25 47 65 85 97 99 91 94 109 146 207 207 191 168 174 180 186 192 209 209 201 201 201 200 201 199 194 192 194 188 184 175 169 177 192 181 179 200 224 242
350 357 7 22 44 59 70 80 87 88 91 137 194 209 197 187 183 176 181 175 178 207 217 201 202 202 203 199 192 193 199 196 196 199 199 193 198 179 177 173 172 200 242
350 355 7 20 35 54 63 68 73 90 125 176 191 181 175 171 166 168 166 174 186 201 196 186 191 198 195 190 187 194 199 200 206 210 205 204 204 193 188 178 162 170 223
347 353 5 24 39 48 60 65 76 107 160 170 152 143 145 144 150 149 145 153 164 165 144 138 146 160 172 180 177 193 199 197 206 211 211 211 207 200 199 188 176 171 195
347 352 358 16 36 55 51 47 58 125 142 128 116 117 121 129 131 125 125 133 131 117 116 110 111 108 118 143 161 177 195 198 204 204 207 211 207 205 201 199 195 187 185
346 352 3 18 26 42 46 17 345 92 105 105 100 97 96 104 106 105 120 133 129 133 132 133 129 121 116 124 142 162 173 190 201 206 208 213 202 206 207 200 196 195 185
357 7 17 29 29 29 25 354 310 100 116 115 99 97 99 100 100 101 122 144 151 155 159 154 152 152 148 146 150 164 176 184 198 207 208 214 208 209 207 204 205 201 194
16 27 29 30 26 21 17 14 353 105 116 114 109 98 87 88 91 94 116 165 174 174 174 171 179 183 181 174 171 169 170 178 191 202 207 212 205 212 209 206 206 203 201
24 30 31 26 22 22 22 21 22 55 106 116 106 88 77 75 66 43 21 338 252 221 210 204 204 202 197 192 187 180 182 185 190 204 213 212 213 220 213 210 206 198 196
20 22 23 21 23 27 29 32 38 45 63 68 67 63 49 39 40 30 16 347 293 271 246 228 222 210 204 207 199 194 193 194 202 223 233 230 218 217 204 195 195 190 188
8 12 17 21 24 23 24 31 35 37 47 54 50 43 36 27 20 11 9 11 349 316 288 257 240 229 228 219 205 195 193 195 199 211 233 253 248 235 219 214 201 194 190
359 4 6 7 11 15 21 28 27 33 43 43 37 31 27 23 11 7 12 10 357 340 318 293 263 251 248 242 222 204 190 196 202 206 212 231 232 224 221 238 230 220 216
350 350 352 356 1 10 18 23 27 31 35 33 28 21 19 14 8 8 2 355 352 343 325 313 298 278 273 261 236 210 192 197 206 206 207 218 236 225 207 209 223 234 235
330 329 336 342 355 6 8 25 26 25 28 24 19 13 13 11 10 6 354 352 351 347 337 326 323 309 305 306 266 196 174 194 211 210 210 217 229 239 212 199 226 253 261
330 330 333 344 358 356 6 26 18 19 15 7 8 10 13 17 14 5 359 354 354 351 354 3 3 355 338 334 315 187 165 181 197 207 220 225 229 238 215 199 211 242 262
325 332 338 340 336 344 11 18 8 360 346 359 15 18 15 18 18 14 14 11 14 18 21 21 20 20 11 2 6 128 153 171 176 191 214 254 269 245 214 190 200 230 238
333 334 335 327 325 343 12 7 348 332 355 26 29 25 22 24 24 23 22 22 23 26 24 21 20 19 14 13 14 34 85 134 148 180 207 336 50 85 120 166 211 228 177
330 330 326 322 323 333 356 346 327 340 47 54 39 29 29 30 29 31 27 25 25 26 22 21 20 15 12 13 22 30 45 74 90 89 90 83 80 75 66 59 76 93 99
326 326 326 324 315 310 297 285 313 53 86 65 38 29 34 33 33 34 30 30 25 23 21 21 18 13 12 11 8 12 27 47 62 67 78 79 72 65 55 51 51 58 87
317 317 310 297 290 288 277 270 223 147 105 72 40 29 37 41 38 38 31 25 24 20 19 14 12 11 8 354 356 10 19 36 72 78 63 52 46 43 38 40 46 48 57
316 316 309 297 289 279 263 252 199 172 153 108 22 9 16 38 40 26 20 21 22 25 33 30 24 6 3 7 27 40 52 66 79 73 65 58 53 49 41 40 38 37 37
Height
1487 1487 1488 1489 1491 1493 1495 1497 1500 1503 1505 1508 1510 1513 1515 1518 1520 1522 1524 1525 1527 1528 1529 1531 1533 1535 1537 1538 1540 1542 1544 1545 1546 1548 1549 1549 1550 1550 1551 1551 1552 1552 1552
1482 1481 1481 1482 1483 1485 1487 1491 1494 1498 1501 1504 1507 1510 1513 1515 1518 1520 1522 1523 1524 1525 1526 1528 1529 1531 1533 1534 1536 1538 1540 1542 1544 1545 1546 1547 1549 1548 1549 1549 1550 1551 1551
1479 1476 1475 1475 1476 1478 1480 1483 1487 1491 1496 1500 1504 1507 1509 1512 1515 1517 1519 1520 1521 1522 1523 1524 1526 1527 1528 1530 1532 1534 1536 1538 1540 1542 1544 1544 1544 1545 1546 1547 1548 1549 1550
1478 1474 1471 1470 1470 1472 1474 1478 1482 1486 1491 1496 1500 1504 1507 1510 1512 1514 1515 1517 1518 1519 1520 1521 1522 1523 1524 1526 1527 1529 1531 1533 1535 1537 1539 1541 1542 1543 1543 1545 1545 1547 1548
1478 1473 1469 1467 1468 1469 1471 1474 1478 1483 1487 1493 1497 1501 1504 1507 1509 1510 1512 1513 1514 1515 1516 1517 1518 1519 1520 1521 1523 1524 1526 1528 1529 1531 1534 1536 1538 1540 1541 1541 1542 1544 1545
1479 1475 1471 1468 1467 1468 1470 1472 1476 1481 1486 1490 1495 1499 1503 1505 1506 1507 1509 1510 1511 1512 1513 1514 1515 1515 1516 1517 1518 1520 1521 1522 1524 1527 1528 1530 1533 1534 1537 1538 1539 1540 1542
1481 1477 1474 1472 1470 1470 1472 1474 1477 1482 1486 1490 1494 1498 1502 1504 1505 1506 1507 1508 1509 1510 1511 1511 1512 1512 1513 1514 1514 1515 1516 1518 1519 1521 1523 1525 1527 1530 1532 1535 1536 1537 1539
1483 1479 1477 1476 1475 1474 1475 1477 1479 1484 1487 1492 1495 1497 1500 1502 1503 1505 1505 1506 1507 1508 1508 1509 1509 1509 1509 1510 1511 1511 1512 1513 1514 1516 1518 1520 1522 1524 1527 1529 1532 1533 1535
1484 1481 1479 1478 1477 1477 1477 1479 1482 1486 1490 1493 1496 1497 1499 1501 1502 1504 1504 1505 1506 1506 1507 1506 1507 1506 1507 1507 1508 1508 1508 1509 1510 1512 1513 1515 1517 1519 1521 1524 1526 1529 1530
1485 1482 1480 1479 1478 1479 1479 1482 1486 1489 1491 1493 1495 1497 1498 1500 1502 1503 1504 1505 1505 1505 1505 1505 1505 1505 1505 1505 1505 1505 1505 1506 1506 1507 1509 1510 1512 1514 1515 1518 1520 1523 1525
1487 1483 1481 1480 1480 1480 1482 1485 1487 1489 1491 1493 1495 1496 1498 1500 1502 1503 1504 1504 1504 1504 1504 1504 1504 1504 1504 1503 1503 1503 1503 1503 1504 1504 1505 1506 1508 1509 1511 1513 1514 1517 1519
1488 1485 1483 1482 1483 1483 1484 1486 1488 1489 1491 1493 1495 1496 1498 1499 1500 1502 1503 1503 1503 1503 1503 1503 1503 1503 1503 1503 1502 1502 1502 1502 1502 1502 1502 1503 1504 1505 1507 1508 1509 1511 1514
1491 1487 1486 1485 1485 1485 1485 1486 1488 1490 1491 1493 1494 1496 1496 1498 1499 1500 1501 1501 1502 1502 1503 1503 1503 1503 1502 1502 1502 1502 1501 1501 1501 1500 1500 1501 1501 1502 1503 1504 1505 1507 1509
1496 1493 1491 1490 1489 1488 1487 1487 1488 1489 1490 1491 1493 1494 1495 1496 1497 1498 1499 1499 1500 1501 1501 1501 1501 1502 1502 1502 1501 1501 1501 1500 1500 1500 1499 1499 1500 1500 1500 1501 1502 1503 1504
1502 1499 1497 1495 1493 1491 1490 1490 1489 1488 1489 1490 1491 1492 1493 1494 1494 1495 1496 1497 1498 1499 1499 1499 1499 1500 1500 1500 1500 1500 1500 1500 1499 1499 1499 1499 1499 1499 1500 1500 1500 1501 1502
1508 1505 1503 1500 1497 1495 1494 1492 1490 1489 1489 1490 1490 1491 1491 1492 1492 1493 1493 1494 1495 1495 1496 1496 1497 1497 1498 1498 1498 1498 1499 1499 1499 1499 1499 1499 1499 1499 1499 1500 1500 1500 1501
1513 1511 1508 1505 1502 1500 1498 1496 1494 1493 1492 1491 1490 1490 1490 1490 1490 1490 1491 1491 1491 1492 1492 1493 1493 1494 1495 1495 1495 1496 1496 1497 1498 1498 1498 1499 1499 1499 1499 1500 1500 1500 1501
1518 1515 1513 1510 1508 1505 1503 1501 1499 1497 1495 1494 1492 1491 1491 1490 1489 1489 1489 1488 1488 1488 1488 1489 1489 1490 1491 1492 1492 1493 1493 1494 1496 1496 1497 1498 1498 1499 1499 1499 1500 1500 1500
1521 1519 1517 1515 1513 1510 1508 1505 1503 1501 1498 1496 1495 1493 1492 1490 1489 1488 1487 1486 1486 1485 1485 1485 1486 1486 1487 1488 1488 1489 1490 1492 1493 1494 1495 1496 1497 1497 1498 1498 1499 1499 1499
1524 1522 1520 1518 1516 1513 1511 1508 1506 1504 1502 1500 1498 1495 1493 1492 1490 1489 1487 1486 1485 1484 1483 1483 1483 1483 1484 1484 1485 1486 1487 1488 1490 1491 1492 1494 1495 1496 1496 1497 1497 1497 1498
1525 1523 1522 1520 1518 1516 1514 1511 1509 1507 1505 1503 1501 1498 1496 1494 1492 1491 1489 1487 1486 1484 1483 1482 1482 1482 1482 1482 1483 1483 1484 1485 1487 1488 1490 1491 1492 1493 1494 1495 1495 1495 1495
1526 1524 1523 1522 1520 1518 1516 1514 1511 1510 1507 1505 1503 1501 1499 1497 1495 1493 1491 1489 1487 1486 1484 1483 1483 1482 1482 1481 1481 1482 1483 1484 1485 1486 1488 1489 1490 1491 1492 1493 1493 1493 1493
1526 1525 1524 1523 1522 1520 1518 1516 1514 1512 1510 1508 1506 1504 1502 1500 1498 1496 1494 1492 1489 1488 1486 1485 1484 1483 1482 1482 1482 1482 1482 1483 1484 1485 1486 1487 1489 1490 1490 1491 1491 1491 1491
1527 1525 1524 1523 1522 1521 1520 1518 1516 1514 1512 1510 1508 1506 1505 1503 1501 1498 1496 1494 1491 1490 1488 1487 1485 1484 1483 1483 1483 1483 1483 1483 1484 1484 1485 1487 1487 1488 1489 1489 1489 1489 1489
1527 1525 1524 1523 1522 1521 1520 1519 1517 1515 1513 1512 1510 1508 1507 1505 1503 1500 1498 1496 1494 1492 1491 1489 1488 1486 1485 1485 1484 1484 1484 1484 1484 1485 1485 1486 1487 1487 1488 1488 1488 1488 1489
1526 1525 1523 1522 1522 1521 1520 1519 1518 1516 1514 1513 1511 1510 1508 1506 1504 1502 1500 1498 1496 1495 1493 1492 1490 1489 1488 1487 1486 1486 1485 1485 1485 1486 1486 1486 1486 1487 1487 1487 1487 1488 1488